Dover, DE

8:51 PM EDT on September 28, 2016 (GMT -0400)
Dover Air Force Base

Weather History for KDOV - September, 2013

Change the Weather History Date:

Friday, September 20, 2013

  Actual Average Record
Temperature  
Mean Temperature 66 °F -  
Max Temperature 76 °F 79 °F 92 °F (1977)
Min Temperature 54 °F 58 °F 46 °F (1979)
Growing Degree Days 16 (Base 50)    
Moisture  
Dew Point 57 °F    
Average Humidity 78    
Maximum Humidity 99    
Minimum Humidity 57    
Precipitation  
Precipitation 0.00 in - - ()
Sea Level Pressure  
Sea Level Pressure 30.07 in    
Wind  
Wind Speed 6 mph (SE)    
Max Wind Speed 10 mph    
Max Gust Speed -    
Visibility 10 miles    
Events      
Averages and records for this station are not official NWS values.
T = Trace of Precipitation, MM = Missing Value Source: NWS Daily Summary

Daily Weather History Graph

Daily Weather History Graph

Search for Another Location

Airport or City:

Trip Planner

Search our weather history database for the weather conditions in past years. The results will help you decide how hot, cold, wet, or windy it might be!

Date:

Astronomy

Sep. 20, 2013 Rise Set
Actual Time 6:47 AM EDT 7:01 PM EDT
Civil Twilight 6:21 AM EDT 7:28 PM EDT
Nautical Twilight 5:49 AM EDT 7:59 PM EDT
Astronomical Twilight 5:17 AM EDT 8:31 PM EDT
Moon 7:35 PM EDT (9/20) 7:59 AM EDT (9/20)
Length of Visible Light 13h 07m
Length of Day
12h 13m
Full, 98% of the Moon is Illuminated
Sep 20
Full
Sep 26
Last Quarter
Oct 4
New
Oct 11
First Quarter
Oct 18
Full

Hourly Weather History & Observations

Time (EDT) Temp. Dew Point Humidity Pressure Visibility Wind Dir Wind Speed Gust Speed Precip Events Conditions
12:58 AM 57.4 °F 53.2 °F 86% 30.10 in 10.0 mi SSW 6.9 mph - N/A   Clear
1:58 AM 56.1 °F 53.1 °F 89% 30.11 in 10.0 mi South 5.8 mph - N/A   Clear
2:58 AM 55.8 °F 53.4 °F 92% 30.10 in 10.0 mi South 5.8 mph - N/A   Clear
3:58 AM 54.9 °F 53.2 °F 94% 30.09 in 10.0 mi SSW 3.5 mph - N/A   Clear
4:58 AM 55.2 °F 53.6 °F 94% 30.09 in 10.0 mi South 5.8 mph - N/A   Clear
5:58 AM 55.4 °F 54.1 °F 96% 30.11 in 10.0 mi Calm Calm - N/A   Clear
6:58 AM 54.7 °F 54.5 °F 99% 30.11 in 10.0 mi Calm Calm - N/A   Partly Cloudy
7:58 AM 57.6 °F 57.4 °F 99% 30.11 in 10.0 mi South 3.5 mph - N/A   Partly Cloudy
8:58 AM 63.7 °F 61.2 °F 91% 30.10 in 10.0 mi SSE 2.3 mph - N/A   Clear
9:58 AM 68.7 °F 61.7 °F 78% 30.11 in 10.0 mi Variable 4.6 mph - N/A   Clear
10:58 AM 71.6 °F 60.3 °F 67% 30.10 in 10.0 mi Variable 4.6 mph - N/A   Clear
11:58 AM 74.1 °F 59.5 °F 60% 30.08 in 10.0 mi ESE 5.8 mph - N/A   Clear
12:18 PM 75.2 °F 60.8 °F 61% 30.07 in 10.0 mi ENE 6.9 mph - N/A   Light Drizzle
12:21 PM 77.0 °F 60.8 °F 57% 30.07 in 10.0 mi ESE 6.9 mph - N/A   Scattered Clouds
12:58 PM 75.4 °F 61.7 °F 62% 30.07 in 10.0 mi East 8.1 mph - N/A   Scattered Clouds
1:58 PM 75.4 °F 59.7 °F 58% 30.06 in 10.0 mi ESE 8.1 mph - N/A   Clear
2:58 PM 74.8 °F 59.7 °F 59% 30.05 in 10.0 mi East 10.4 mph - N/A   Clear
3:58 PM 74.1 °F 59.9 °F 61% 30.04 in 10.0 mi ESE 9.2 mph - N/A   Clear
4:58 PM 72.9 °F 57.6 °F 59% 30.03 in 10.0 mi ESE 10.4 mph - N/A   Clear
5:58 PM 70.9 °F 59.0 °F 66% 30.02 in 10.0 mi SE 9.2 mph - N/A   Clear
6:58 PM 66.9 °F 57.6 °F 72% 30.00 in 10.0 mi SE 10.4 mph - N/A   Clear
7:58 PM 63.7 °F 57.0 °F 79% 30.01 in 10.0 mi SE 8.1 mph - N/A   Clear
8:58 PM 61.5 °F 57.2 °F 86% 30.02 in 10.0 mi SSE 5.8 mph - N/A   Clear
9:58 PM 59.5 °F 56.3 °F 89% 30.02 in 10.0 mi SSE 6.9 mph - N/A   Clear
10:58 PM 58.8 °F 56.1 °F 91% 30.02 in 10.0 mi SSE 5.8 mph - N/A   Clear
11:58 PM 59.2 °F 56.3 °F 90% 30.02 in 10.0 mi SSE 4.6 mph - N/A   Clear